LEMDDAOO

Guest
Details From LEMD - Madrid - Barajas
To DAOO - Es Senia
Flight Number -
Tags Generated
Created
Modified
Stats Distance 327 nm / 605 km
Max Altitude 0 ft / 0 m
Waypoints 3
Social Downloads 0
Likes 0
Share VATSIM

Download

Looking for another format? Having issues loading an existing format? Contact us
Advertisement - Login to hide

Notes

Generated

Route

LEMD ORA DAOO

ID Type Via Altitude Latitude Longitude Leg Dist Tot Dist Heading (true) Name
O LEMD APT - 0 ft / 0 m 40.53262˚ -3.55938˚ - 0 nm - -
ORA VOR - 0 ft / 0 m 35.61265˚ -0.65499˚ 325 nm 325 nm 154° / 156° ORAN VOR-DME
O DAOO APT - 0 ft / 0 m 35.61852˚ -0.63672˚ 0 nm 326 nm 68° / 68° -

Altitude Profile

Advertisement - Login to hide

Weather


0- 5 10 15 20 25 30 35+ Temperature / ° C

Clouds and Precipitation
Forecast for 2018-05-27 00:00 UTC. Updated 3 hours ago

Ground ~20,000 ft ~40,000 ft Winds

LEMD

Details ICAO LEMD (MAD)
Name Barajas
Region Spain
Timezone Europe/Madrid (UTC+2.0)
Stats Elevation 1,998 ft / 609 m (AMSL)
Location 40.490447° -3.560614°
Runways 5
Magnetic Variation 0.632° W

METAR

LEMD 270130Z 34004KT CAVOK 13/11 Q1014 NOSIG

Decode

TAF

TAF LEMD 262300Z 2700/2806 VRB04KT 9999 FEW045 TX26/2715Z TN13/2806Z TEMPO 2713/2724 SCT025TCU BECMG 2716/2719 22010KT PROB40 TEMPO 2716/2801 VRB15G27KT 4000 TS SHRA SCT025CB

Decode

Departure Runways

ID Width Length Bearing (true) Bearing (mag) Surface Threshold Offset Overrun Length
14L 197 ft / 60 m 11,494 ft / 3,504 m 142.32° 142.95° Asphalt 0 ft / 0 m 820 ft / 250 m
14R 197 ft / 60 m 13,454 ft / 4,101 m 142.30° 142.93° Asphalt 0 ft / 0 m 427 ft / 130 m
18C 174 ft / 53 m 10,952 ft / 3,338 m 179.60° 180.23° Concrete 0 ft / 0 m 0 ft / 0 m
18L 197 ft / 60 m 11,494 ft / 3,503 m 179.76° 180.39° Asphalt 1,640 ft / 500 m 984 ft / 300 m
18R 197 ft / 60 m 14,282 ft / 4,353 m 179.76° 180.39° Asphalt 3,232 ft / 985 m 853 ft / 260 m
32L 197 ft / 60 m 13,454 ft / 4,101 m 322.32° 322.95° Asphalt 3,445 ft / 1,050 m 328 ft / 100 m
32R 197 ft / 60 m 11,494 ft / 3,504 m 322.33° 322.96° Asphalt 1,640 ft / 500 m 984 ft / 300 m
36C 174 ft / 53 m 10,952 ft / 3,338 m 359.60° 0.23° Concrete 0 ft / 0 m 0 ft / 0 m
36L 197 ft / 60 m 14,282 ft / 4,353 m 359.76° 0.39° Asphalt 0 ft / 0 m 0 ft / 0 m
36R 197 ft / 60 m 11,494 ft / 3,503 m 359.76° 0.39° Asphalt 0 ft / 0 m 295 ft / 90 m

DAOO

Details ICAO DAOO (ORN)
Name ES SENIA
Region Algeria
Timezone Africa/Algiers (UTC+1.0)
Stats Elevation 295 ft / 90 m (AMSL)
Location 35.623858° -0.621183°
Runways 1
Magnetic Variation 0.199° E

METAR

DAOO 270130Z 00000KT CAVOK 16/13 Q1012

Decode

TAF

TAF DAOO 262300Z 2700/2724 VRB02KT 9999 FEW026 BECMG 2708/2710 26012KT SCT020 TEMPO 2712/2708 28018KT

Decode

Destination Runways

ID Width Length Bearing (true) Bearing (mag) Surface Threshold Offset Overrun Length
07 148 ft / 45 m 10,006 ft / 3,050 m 67.06° 66.86° Asphalt 0 ft / 0 m 328 ft / 100 m
25 148 ft / 45 m 10,006 ft / 3,050 m 247.08° 246.88° Asphalt 196 ft / 60 m 0 ft / 0 m